• In Hungary
  • List of Countries
  • For 7 days
  • Water Temperature
  • Satellite Maps
  • Weather Map
  • News
  • Weather Widgets
  • user-avatar
    Login

    Hourly Weather Wiersze

    Today, 21 September, Friday

    Time Temperature Precipitation Wind Pressure Humidity
    00:00 +20°C° 0 mm 2 mps 756 mmHg 63%
    01:00 +20°C° 0 mm 2 mps 755 mmHg 64%
    02:00 +19°C° 0 mm 3 mps 755 mmHg 64%
    03:00 +19°C° 0 mm 3 mps 755 mmHg 64%
    04:00 +18°C° 0 mm 3 mps 755 mmHg 64%
    05:00 +19°C° 0 mm 3 mps 755 mmHg 62%
    06:00 +19°C° 0 mm 3 mps 755 mmHg 61%
    07:00 +19°C° 0 mm 3 mps 755 mmHg 58%
    08:00 +21°C° 0 mm 3 mps 755 mmHg 54%
    09:00 +23°C° 0 mm 4 mps 754 mmHg 49%
    10:00 +26°C° 0 mm 4 mps 754 mmHg 45%
    11:00 +27°C° 0 mm 5 mps 753 mmHg 41%
    12:00 +28°C° 0 mm 5 mps 753 mmHg 37%
    13:00 +29°C° 0 mm 6 mps 752 mmHg 34%
    14:00 +29°C° 0 mm 5 mps 752 mmHg 35%
    15:00 +28°C° 0 mm 5 mps 751 mmHg 37%
    16:00 +28°C° 0 mm 5 mps 750 mmHg 39%
    17:00 +26°C° 0 mm 5 mps 750 mmHg 42%
    18:00 +25°C° 0 mm 5 mps 750 mmHg 46%
    19:00 +22°C° 0 mm 5 mps 749 mmHg 49%
    20:00 +22°C° 0 mm 5 mps 749 mmHg 50%
    21:00 +22°C° 0 mm 6 mps 749 mmHg 50%
    22:00 +22°C° 0 mm 6 mps 749 mmHg 50%
    23:00 +21°C° 0.2 mm 6 mps 749 mmHg 58%

    Tomorrow, 22 September, Saturday

    Time Temperature Precipitation Wind Pressure Humidity
    00:00 +20°C° 0.2 mm 6 mps 750 mmHg 66%
    01:00 +20°C° 0.2 mm 6 mps 750 mmHg 74%
    02:00 +17°C° 0.8 mm 6 mps 751 mmHg 76%
    03:00 +16°C° 0.8 mm 6 mps 752 mmHg 78%
    04:00 +14°C° 0.8 mm 6 mps 753 mmHg 81%
    05:00 +14°C° 0.1 mm 5 mps 753 mmHg 78%
    06:00 +14°C° 0.1 mm 5 mps 754 mmHg 75%
    07:00 +13°C° 0.1 mm 4 mps 755 mmHg 73%
    08:00 +14°C° 0 mm 5 mps 755 mmHg 66%
    09:00 +15°C° 0 mm 6 mps 755 mmHg 60%
    10:00 +15°C° 0 mm 6 mps 755 mmHg 54%
    11:00 +16°C° 0.1 mm 7 mps 755 mmHg 51%
    12:00 +17°C° 0.1 mm 7 mps 755 mmHg 48%
    13:00 +17°C° 0.1 mm 7 mps 755 mmHg 45%
    14:00 +17°C° 0.1 mm 7 mps 755 mmHg 46%
    15:00 +17°C° 0.1 mm 6 mps 755 mmHg 47%
    16:00 +16°C° 0.1 mm 6 mps 754 mmHg 48%
    17:00 +15°C° 0 mm 5 mps 755 mmHg 52%
    18:00 +14°C° 0 mm 4 mps 755 mmHg 56%
    19:00 +13°C° 0 mm 3 mps 755 mmHg 60%
    20:00 +12°C° 0 mm 3 mps 755 mmHg 61%
    21:00 +12°C° 0 mm 4 mps 755 mmHg 63%
    22:00 +12°C° 0 mm 4 mps 755 mmHg 64%
    23:00 +12°C° 0 mm 4 mps 755 mmHg 66%

    Day after tomorrow, 23 September, Sunday

    Time Temperature Precipitation Wind Pressure Humidity
    00:00 +11°C° 0 mm 4 mps 755 mmHg 68%
    01:00 +11°C° 0 mm 4 mps 755 mmHg 69%
    02:00 +11°C° 0 mm 4 mps 755 mmHg 70%
    03:00 +10°C° 0 mm 4 mps 755 mmHg 71%
    04:00 +10°C° 0 mm 4 mps 755 mmHg 72%
    05:00 +9°C° 0 mm 5 mps 755 mmHg 71%
    06:00 +10°C° 0 mm 5 mps 755 mmHg 70%
    07:00 +10°C° 0 mm 6 mps 755 mmHg 70%
    08:00 +11°C° 0 mm 6 mps 755 mmHg 63%
    09:00 +14°C° 0 mm 7 mps 755 mmHg 57%
    10:00 +15°C° 0 mm 7 mps 755 mmHg 50%
    11:00 +16°C° 0 mm 7 mps 755 mmHg 48%
    12:00 +16°C° 0 mm 7 mps 755 mmHg 45%
    13:00 +17°C° 0 mm 7 mps 755 mmHg 43%
    14:00 +17°C° 0 mm 6 mps 754 mmHg 44%
    15:00 +16°C° 0 mm 5 mps 754 mmHg 45%
    16:00 +16°C° 0 mm 5 mps 754 mmHg 46%
    17:00 +15°C° 0 mm 4 mps 754 mmHg 48%
    18:00 +14°C° 0 mm 3 mps 753 mmHg 50%
    19:00 +15°C° 0 mm 2 mps 753 mmHg 53%
    20:00 +14°C° 0.1 mm 2 mps 752 mmHg 57%
    21:00 +14°C° 0.1 mm 2 mps 751 mmHg 62%
    22:00 +13°C° 0.1 mm 2 mps 750 mmHg 66%
    23:00 +12°C° 2.1 mm 3 mps 749 mmHg 74%

    24 September, Monday

    Time Temperature Precipitation Wind Pressure Humidity
    00:00 +11°C° 2.1 mm 3 mps 747 mmHg 82%
    01:00 +11°C° 2.1 mm 4 mps 746 mmHg 89%
    02:00 +9°C° 4.2 mm 5 mps 745 mmHg 90%
    03:00 +9°C° 4.2 mm 6 mps 743 mmHg 91%
    04:00 +9°C° 4.2 mm 7 mps 742 mmHg 91%
    05:00 +7°C° 2.6 mm 8 mps 742 mmHg 91%
    06:00 +7°C° 2.6 mm 10 mps 743 mmHg 91%
    07:00 +6°C° 2.6 mm 11 mps 743 mmHg 90%
    08:00 +7°C° 0.8 mm 10 mps 745 mmHg 85%
    09:00 +8°C° 0.8 mm 10 mps 746 mmHg 81%
    10:00 +10°C° 0.8 mm 9 mps 748 mmHg 76%
    11:00 +11°C° 0.2 mm 9 mps 749 mmHg 69%
    12:00 +12°C° 0.2 mm 9 mps 750 mmHg 62%
    13:00 +13°C° 0.2 mm 10 mps 751 mmHg 56%
    14:00 +12°C° 0.1 mm 9 mps 752 mmHg 56%
    15:00 +12°C° 0.1 mm 9 mps 752 mmHg 57%
    16:00 +11°C° 0.1 mm 9 mps 753 mmHg 57%
    17:00 +10°C° 0.1 mm 8 mps 754 mmHg 61%
    18:00 +9°C° 0.1 mm 7 mps 755 mmHg 64%
    19:00 +8°C° 0.1 mm 7 mps 756 mmHg 67%
    20:00 +8°C° 0 mm 6 mps 756 mmHg 68%
    21:00 +7°C° 0 mm 6 mps 757 mmHg 68%
    22:00 +7°C° 0 mm 6 mps 758 mmHg 69%
    23:00 +7°C° 0 mm 6 mps 759 mmHg 69%

    25 September, Tuesday

    Time Temperature Precipitation Wind Pressure Humidity
    00:00 +5°C° 0 mm 6 mps 759 mmHg 68%
    01:00 +5°C° 0 mm 6 mps 760 mmHg 67%
    02:00 +5°C° 0 mm 6 mps 761 mmHg 68%
    03:00 +5°C° 0 mm 6 mps 761 mmHg 68%
    04:00 +5°C° 0 mm 6 mps 762 mmHg 69%
    05:00 +5°C° 0 mm 6 mps 762 mmHg 67%
    06:00 +5°C° 0 mm 6 mps 763 mmHg 66%
    07:00 +6°C° 0 mm 7 mps 763 mmHg 65%
    08:00 +8°C° 0 mm 7 mps 764 mmHg 59%
    09:00 +9°C° 0 mm 8 mps 764 mmHg 54%
    10:00 +10°C° 0 mm 8 mps 765 mmHg 49%
    11:00 +11°C° 0.1 mm 8 mps 765 mmHg 46%
    12:00 +11°C° 0.1 mm 8 mps 765 mmHg 44%
    13:00 +12°C° 0.1 mm 8 mps 765 mmHg 41%
    14:00 +12°C° 0 mm 7 mps 765 mmHg 43%
    15:00 +13°C° 0 mm 6 mps 765 mmHg 44%
    16:00 +13°C° 0 mm 5 mps 765 mmHg 46%
    17:00 +12°C° 0 mm 5 mps 765 mmHg 50%
    18:00 +10°C° 0 mm 5 mps 765 mmHg 54%
    19:00 +10°C° 0 mm 5 mps 766 mmHg 58%
    20:00 +9°C° 0 mm 5 mps 766 mmHg 62%
    21:00 +9°C° 0 mm 5 mps 765 mmHg 67%
    22:00 +9°C° 0 mm 6 mps 765 mmHg 72%
    23:00 +9°C° 0 mm 6 mps 765 mmHg 72%

    26 September, Wednesday

    Time Temperature Precipitation Wind Pressure Humidity
    00:00 +9°C° 0 mm 6 mps 765 mmHg 73%
    01:00 +9°C° 0 mm 6 mps 765 mmHg 73%
    02:00 +9°C° 0.2 mm 7 mps 764 mmHg 74%
    03:00 +9°C° 0.2 mm 7 mps 764 mmHg 76%
    04:00 +9°C° 0.2 mm 7 mps 764 mmHg 77%
    05:00 +8°C° 0.6 mm 7 mps 764 mmHg 77%
    06:00 +8°C° 0.6 mm 7 mps 764 mmHg 78%
    07:00 +8°C° 0.6 mm 7 mps 763 mmHg 78%
    08:00 +9°C° 0.1 mm 7 mps 763 mmHg 75%
    09:00 +10°C° 0.1 mm 8 mps 763 mmHg 72%
    10:00 +11°C° 0.1 mm 8 mps 763 mmHg 70%
    11:00 +11°C° 0 mm 8 mps 763 mmHg 66%
    12:00 +12°C° 0 mm 8 mps 763 mmHg 63%
    13:00 +13°C° 0 mm 8 mps 763 mmHg 60%
    14:00 +14°C° 0 mm 7 mps 762 mmHg 59%
    15:00 +14°C° 0 mm 6 mps 762 mmHg 59%
    16:00 +14°C° 0 mm 5 mps 762 mmHg 58%
    17:00 +13°C° 0 mm 5 mps 762 mmHg 57%
    18:00 +13°C° 0 mm 5 mps 762 mmHg 57%
    19:00 +12°C° 0 mm 4 mps 762 mmHg 57%
    20:00 +12°C° 0 mm 4 mps 762 mmHg 57%
    21:00 +12°C° 0 mm 4 mps 762 mmHg 57%
    22:00 +12°C° 0 mm 4 mps 762 mmHg 57%
    23:00 +11°C° 0 mm 4 mps 762 mmHg 57%
    Show more